This is the latest recevied weather packets stored in our database for station/object G7GQA-4. If no packets are shown the sender has not sent any weather packets the latest 1 day(s).
| Time | Temp. | Humidity | Pressure | Rain* | Wind** | Luminosity | Snow |
|---|---|---|---|---|---|---|---|
| 1778052925 | 7.78° C | 79% | - | 0 mm | 0.89 m/s, 325° | 112 W/m² | - |
| 1778052326 | 7.78° C | 79% | - | 0 mm | 0.45 m/s, 144° | 107 W/m² | - |
| 1778051726 | 7.78° C | 79% | - | 0 mm | 0.89 m/s, 89° | 102 W/m² | - |
| 1778051126 | 7.78° C | 79% | - | 0 mm | 0.89 m/s, 335° | 94 W/m² | - |
| 1778050526 | 7.78° C | 79% | - | 0 mm | 0.89 m/s, 329° | 86 W/m² | - |
| 1778049926 | 7.22° C | 79% | - | 0 mm | 0.45 m/s, 70° | 76 W/m² | - |
| 1778049326 | 7.22° C | 80% | - | 0 mm | 0.45 m/s, 245° | 69 W/m² | - |
| 1778048126 | 7.22° C | 79% | - | 0 mm | 0.89 m/s, 309° | 53 W/m² | - |
| 1778047525 | 7.22° C | 80% | - | 0 mm | 0.45 m/s, 285° | 46 W/m² | - |
| 1778046926 | 7.22° C | 79% | - | 0 mm | 0 m/s | 38 W/m² | - |
| 1778046326 | 7.22° C | 79% | - | 0 mm | 0 m/s | 32 W/m² | - |
| 1778045726 | 7.22° C | 78% | - | 0 mm | 0.89 m/s, 317° | 26 W/m² | - |
| 1778045126 | 7.22° C | 78% | - | 0 mm | 0.89 m/s, 287° | 21 W/m² | - |
| 1778044526 | 7.22° C | 78% | - | 0 mm | 0 m/s | 16 W/m² | - |
| 1778043926 | 7.22° C | 79% | - | 0 mm | 0 m/s | 12 W/m² | - |
| 1778043326 | 7.22° C | 79% | - | 0 mm | 0 m/s | 7 W/m² | - |
| 1778042126 | 7.22° C | 79% | - | 0 mm | 0.45 m/s, 304° | 2 W/m² | - |
| 1778041526 | 7.22° C | 79% | - | 0 mm | 0 m/s | 1 W/m² | - |
| 1778040926 | 7.22° C | 79% | - | 0 mm | 0 m/s | 0 W/m² | - |
| 1778040326 | 7.22° C | 78% | - | 0 mm | 0 m/s | 0 W/m² | - |
| 1778038526 | 7.78° C | 76% | - | 0 mm | 0.89 m/s, 124° | 0 W/m² | - |
| 1778037926 | 7.78° C | 77% | - | 0 mm | 0 m/s | 0 W/m² | - |
| 1778037326 | 7.78° C | 79% | - | 0 mm | 0 m/s | 0 W/m² | - |
| 1778036726 | 7.78° C | 80% | - | 0 mm | 0.45 m/s, 325° | 0 W/m² | - |
| 1778036126 | 8.33° C | 81% | - | 0 mm | 0.45 m/s, 302° | 0 W/m² | - |
* Rain latest hour (hover to see other rain measurements)
** Current wind speed in m/s (hover to see current wind gust speed)